{"data":{"norad_id":63435,"intl_designator":"2025-069C","name":"STARLINK-33733","alt_names":[],"object_type":"PAYLOAD","status":"ACTIVE","operator":null,"country":"US","launch_date":"2025-04-04","launch_site_code":"AFWTR","launch_vehicle":null,"mission":null,"orbit_class":"UNKNOWN","rcs_meters":null,"size_class":null,"mass_kg":null,"dimensions":null,"purposes":["comms"],"wikipedia_slug":null,"has_3d_model":false,"image_url":null,"decayed_at":null,"tle_current":{"epoch":"2026-09-20T10:29:15.135936Z","epoch_age_seconds":164327,"freshness":"FRESH","line1":"1 63435U 25069C   26263.43698074  .00013296  00000+0  40398-3 0  9990","line2":"2 63435  53.1599 309.9204 0000970  88.3717 271.7397 15.34398015 83334","mean_motion":15.34398015,"eccentricity":9.7e-5,"inclination_deg":53.1599,"raan_deg":309.9204,"arg_perigee_deg":88.3717,"mean_anomaly_deg":271.7397,"bstar":0.00040398,"rev_number":8333,"period_min":93.847879489078,"perigee_km":462.0455779762,"apogee_km":463.37270212737,"semimajor_km":6840.8461400518,"source":"CELESTRAK","updated_at":"2026-09-21T09:00:34.984119Z"}}}